This is the latest recevied weather packets stored in our database for station/object N8HON. If no packets are shown the sender has not sent any weather packets the latest 10 day(s).
| Time | Temp. | Humidity | Pressure | Rain* | Wind** | Luminosity | Snow |
|---|---|---|---|---|---|---|---|
| 1777753045 | 10° C | 45% | 1011.2 hPa | 0 mm | - | 190 W/m² | - |
| 1777752742 | 10° C | 47% | 1011 hPa | 0 mm | - | 182 W/m² | - |
| 1777752438 | 10° C | 45% | 1011.2 hPa | 0 mm | - | 176 W/m² | - |
| 1777752134 | 10.56° C | 44% | 1011.2 hPa | 0 mm | - | 140 W/m² | - |
| 1777751833 | 10° C | 45% | 1011.1 hPa | 0 mm | - | 189 W/m² | - |
| 1777751529 | 10.56° C | 44% | 1011.1 hPa | 0 mm | - | 229 W/m² | - |
| 1777751225 | 10.56° C | 45% | 1011.2 hPa | 0 mm | - | 220 W/m² | - |
| 1777750922 | 11.11° C | 43% | 1011.6 hPa | 0 mm | - | 212 W/m² | - |
| 1777750618 | 12.22° C | 45% | 1011.2 hPa | 0 mm | - | 218 W/m² | - |
| 1777750316 | 12.22° C | 41% | 1011.2 hPa | 0 mm | - | 799 W/m² | - |
| 1777750011 | 11.11° C | 42% | 1011.1 hPa | 0 mm | - | 845 W/m² | - |
| 1777749709 | 11.11° C | 44% | 1011.2 hPa | 0 mm | - | 333 W/m² | - |
| 1777749406 | 11.67° C | 45% | 1011.5 hPa | 0 mm | - | 269 W/m² | - |
| 1777749103 | 12.22° C | 42% | 1011.3 hPa | 0 mm | - | 277 W/m² | - |
| 1777748800 | 13.33° C | 41% | 1011.6 hPa | 0 mm | - | 445 W/m² | - |
| 1777748498 | 12.78° C | 45% | 1011.7 hPa | 0 mm | - | 672 W/m² | - |
| 1777748192 | 12.78° C | 42% | 1011.3 hPa | 0 mm | - | 724 W/m² | - |
| 1777747889 | 12.22° C | 41% | 1011.5 hPa | 0 mm | - | 709 W/m² | - |
| 1777747585 | 12.22° C | 46% | 1011.6 hPa | 0 mm | - | 705 W/m² | - |
| 1777747281 | 12.22° C | 41% | 1011.5 hPa | 0 mm | - | 543 W/m² | - |
| 1777746977 | 12.22° C | 46% | 1011.4 hPa | 0 mm | - | 372 W/m² | - |
| 1777746674 | 11.67° C | 44% | 1011.5 hPa | 0 mm | - | 897 W/m² | - |
| 1777746369 | 12.78° C | 43% | 1011.6 hPa | 0 mm | - | 314 W/m² | - |
| 1777746065 | 12.78° C | 44% | 1011.7 hPa | 0 mm | - | 406 W/m² | - |
| 1777745763 | 11.67° C | 48% | 1012.1 hPa | 0 mm | - | 921 W/m² | - |
* Rain latest hour (hover to see other rain measurements)
** Current wind speed in m/s (hover to see current wind gust speed)